Alexandria, LA

9:59 PM CDT on August 20, 2017 (GMT -0500)
Alexandria International

Weather History for KAEX - January, 2005

Change the Weather History Date:

Thursday, January 6, 2005

  Actual Average Record
Temperature  
Mean Temperature 48 °F 49 °F  
Max Temperature 53 °F 59 °F 80 °F (2008)
Min Temperature 42 °F 39 °F 15 °F (1924)
Degree Days  
Heating Degree Days 18 16  
Month to date heating degree days 96  
Since 1 July heating degree days 885  
Moisture  
Dew Point 39 °F    
Average Humidity 77    
Maximum Humidity 89    
Minimum Humidity 59    
Precipitation  
Precipitation 0.01 in 0.16 in 6.00 in (1899)
Month to date precipitation 0.90  
Year to date precipitation 0.90  
Snow  
Snow 0.00 in - T in (2017)
Month to date snowfall  
Since 1 July snowfall  
Snow Depth -    
Sea Level Pressure  
Sea Level Pressure 30.08 in    
Wind  
Wind Speed 12 mph (NNW)    
Max Wind Speed 21 mph    
Max Gust Speed 25 mph    
Visibility 10 miles    
Events Rain    
T = Trace of Precipitation, MM = Missing Value Source: NWS Daily Summary

Daily Weather History Graph

Daily Weather History Graph

Search for Another Location

Airport or City:

Trip Planner

Search our weather history database for the weather conditions in past years. The results will help you decide how hot, cold, wet, or windy it might be!

Date:

Astronomy

Jan. 06, 2005 Rise Set
Actual Time 7:10 AM CST 5:22 PM CST
Civil Twilight 6:43 AM CST 5:49 PM CST
Nautical Twilight 6:13 AM CST 6:19 PM CST
Astronomical Twilight 5:43 AM CST 6:48 PM CST
Moon 2:59 AM CST (1/6) 1:37 PM CST (1/6)
Length of Visible Light 11h 05m
Length of Day
10h 12m
Waning Crescent, 19% of the Moon is Illuminated
Jan 6
Waning Crescent
Jan 10
New
Jan 17
First Quarter
Jan 25
Full
Feb 2
Last Quarter

Hourly Weather History & Observations

Time (CST) Temp. Windchill Dew Point Humidity Pressure Visibility Wind Dir Wind Speed Gust Speed Precip Events Conditions
12:11 AM 53.6 °F - 50.0 °F 88% 29.98 in 10.0 mi NW 12.7 mph - 0.00 in   Overcast
12:20 AM 53.6 °F - 50.0 °F 88% 29.98 in 10.0 mi NW 11.5 mph - 0.00 in   Overcast
12:53 AM 51.1 °F - 48.0 °F 89% 30.00 in 10.0 mi NW 18.4 mph - 0.00 in   Overcast
1:13 AM 50.0 °F - 46.4 °F 87% 30.00 in 10.0 mi NW 17.3 mph 25.3 mph N/A   Overcast
1:30 AM 50.0 °F - 46.4 °F 87% 30.01 in 10.0 mi NW 15.0 mph 21.9 mph N/A   Overcast
1:44 AM 48.2 °F - 44.6 °F 87% 30.01 in 10.0 mi NW 20.7 mph - N/A   Overcast
1:53 AM 48.9 °F - 45.0 °F 86% 30.03 in 10.0 mi NW 16.1 mph - N/A   Overcast
2:53 AM 48.0 °F - 44.1 °F 86% 30.03 in 10.0 mi NW 11.5 mph - N/A   Overcast
3:53 AM 46.9 °F - 43.0 °F 86% 30.05 in 10.0 mi NW 11.5 mph - N/A   Overcast
4:53 AM 46.0 °F 40.2 °F 41.0 °F 83% 30.06 in 10.0 mi NW 12.7 mph - 0.01 in Rain Light Rain
5:01 AM 44.6 °F 37.2 °F 41.0 °F 87% 30.06 in 10.0 mi NW 17.3 mph - 0.00 in   Overcast
5:30 AM 44.6 °F 38.4 °F 41.0 °F 87% 30.06 in 10.0 mi NW 12.7 mph - 0.00 in   Overcast
5:53 AM 45.0 °F 39.3 °F 41.0 °F 86% 30.08 in 10.0 mi NNW 11.5 mph - 0.00 in   Overcast
6:53 AM 44.1 °F 38.6 °F 39.0 °F 82% 30.10 in 10.0 mi NNW 10.4 mph - N/A   Overcast
7:53 AM 43.0 °F 36.8 °F 39.0 °F 86% 30.12 in 10.0 mi NW 11.5 mph - N/A   Overcast
8:46 AM 42.8 °F 37.5 °F 37.4 °F 81% 30.14 in 10.0 mi NW 9.2 mph - N/A   Overcast
8:53 AM 42.1 °F 35.7 °F 37.0 °F 82% 30.15 in 10.0 mi NNW 11.5 mph - N/A   Overcast
9:53 AM 43.0 °F 37.7 °F 37.0 °F 80% 30.18 in 10.0 mi NNW 9.2 mph - N/A   Mostly Cloudy
10:09 AM 44.6 °F 39.7 °F 35.6 °F 71% 30.17 in 10.0 mi NNW 9.2 mph - N/A   Scattered Clouds
10:53 AM 44.1 °F 38.6 °F 36.0 °F 73% 30.17 in 10.0 mi NW 10.4 mph - N/A   Mostly Cloudy
11:53 AM 45.0 °F 40.1 °F 35.1 °F 68% 30.14 in 10.0 mi NNW 9.2 mph - N/A   Overcast
12:53 PM 46.0 °F 41.0 °F 35.1 °F 66% 30.11 in 10.0 mi NW 10.4 mph - N/A   Overcast
1:53 PM 46.9 °F - 35.1 °F 63% 30.10 in 10.0 mi NNW 10.4 mph - N/A   Overcast
2:53 PM 46.0 °F 41.9 °F 34.0 °F 63% 30.09 in 10.0 mi NW 8.1 mph - N/A   Overcast
3:53 PM 46.0 °F 41.9 °F 34.0 °F 63% 30.09 in 10.0 mi NNW 8.1 mph - N/A   Overcast
4:53 PM 46.0 °F 43.1 °F 35.1 °F 66% 30.09 in 10.0 mi NNW 5.8 mph - N/A   Overcast
5:53 PM 46.9 °F - 33.1 °F 59% 30.09 in 10.0 mi NNE 8.1 mph - N/A   Overcast
6:53 PM 46.0 °F 43.9 °F 36.0 °F 68% 30.10 in 10.0 mi North 4.6 mph - 0.00 in   Overcast
7:53 PM 46.0 °F 43.1 °F 36.0 °F 68% 30.11 in 10.0 mi NNE 5.8 mph - N/A   Overcast
8:53 PM 46.0 °F 41.9 °F 35.1 °F 66% 30.11 in 10.0 mi North 8.1 mph - N/A   Overcast
9:53 PM 45.0 °F 41.2 °F 36.0 °F 71% 30.12 in 10.0 mi North 6.9 mph - 0.00 in   Overcast
10:53 PM 45.0 °F 40.6 °F 36.0 °F 71% 30.11 in 10.0 mi NNE 8.1 mph - N/A   Overcast
11:42 PM 44.6 °F 39.7 °F 35.6 °F 71% 30.07 in 10.0 mi NE 9.2 mph - N/A   Overcast
11:53 PM 45.0 °F 40.6 °F 36.0 °F 71% 30.08 in 10.0 mi ENE 8.1 mph - N/A   Overcast